Погода в Тигили

Россия / Камчатский край     57°45′40″N   158°40′53″E
темп.,
°C
ветер,
м/с
пор.,
м/с
влажн.,
%
обл.,
%
осадки,
мм/ч
давл.,
гПа
погр.,
м
9 марта, вт
вт900:00−22юз2299100 0.3 100620
03:00−24ю2399100 0.1 100620
06:00−25ю2399100 0.1 100721
09:00−25ююв339564 0.0 100926
12:00−17ююз358832 0.0 1010356
15:00−12зюз468384 0.1 1010909
18:00−12сз229392 0.4 1011135
21:00−16ююв1196100 0.1 101220
10 марта, ср
ср1000:00−17ю3592100 0.1 101466
03:00−16юв3396100 0.1 101461
06:00−14ююв3596100 0.6 1015111
09:00−14ююв349499 0.1 101699
12:00−9ю358597 0.1 1016293
15:00−7ю347966 0.0 1015442
18:00−7юв348883 0.0 1014139
21:00−8вюв4891100 0.1 1014209
11 марта, чт
чт1100:00−8ююв51183100 0.4 1014250
03:00−7ююв41082100 0.0 1012260
06:00−7ююв4781100 0.0 1012158
09:00−7ююв3684100 0.0 1012147
12:00−3ююв3482100 0.1 1012285
15:00−2ююв2383100 0.0 1010372
18:00−3с2289100 0.0 100825
21:00−8с2295100 0.0 100731
12 марта, пт
пт1200:00−9с2393100 0.0 100550
03:00−9с3491100 0.0 100288
06:00−11сз2395100 0.1 100054
09:00−12зсз4695100 0.3 999187
12:00−13зсз4695100 1.4 999330
15:00−13з5794100 1.1 1000497
18:00−14зюз5993100 1.6 1002695
21:00−15зюз4996100 0.6 1004483
13 марта, сб
сб1300:00−17юз2394100 0.8 100446
03:00−17ююв2294100 0.1 100433
06:00−17ююв2395100 0.1 100351
09:00−16ююв2496100 0.1 1003114
12:00−13юз4687100 0.1 1002571
15:00−11з3582100 0.1 1001814
18:00−13с119097 0.1 100145
21:00−19зсз229865 0.1 100220